• In Russia
  • List of Countries
  • For 7 days
  • Water Temperature
  • Satellite Maps
  • Weather Map
  • Weather Widgets
  • user-avatar
    Login

    Hourly Weather Samarqand

    Today, 25 July, Tuesday

    Time Temperature Precipitation Wind Pressure Humidity
    00:00 +29°C° 0 mm 3 mps 692 mmHg 23%
    01:00 +28°C° 0 mm 3 mps 692 mmHg 24%
    02:00 +28°C° 0 mm 3 mps 691 mmHg 24%
    03:00 +28°C° 0 mm 3 mps 691 mmHg 24%
    04:00 +27°C° 0 mm 3 mps 691 mmHg 25%
    05:00 +29°C° 0 mm 3 mps 692 mmHg 23%
    06:00 +31°C° 0 mm 3 mps 692 mmHg 21%
    07:00 +33°C° 0 mm 3 mps 692 mmHg 20%
    08:00 +35°C° 0 mm 4 mps 693 mmHg 18%
    09:00 +37°C° 0 mm 4 mps 693 mmHg 16%
    10:00 +40°C° 0 mm 4 mps 693 mmHg 14%
    11:00 +40°C° 0 mm 4 mps 693 mmHg 13%
    12:00 +41°C° 0 mm 4 mps 693 mmHg 12%
    13:00 +42°C° 0 mm 4 mps 692 mmHg 11%
    14:00 +42°C° 0 mm 4 mps 692 mmHg 11%
    15:00 +42°C° 0 mm 4 mps 692 mmHg 11%
    16:00 +41°C° 0 mm 4 mps 692 mmHg 11%
    17:00 +40°C° 0 mm 4 mps 691 mmHg 12%
    18:00 +37°C° 0 mm 3 mps 691 mmHg 14%
    19:00 +35°C° 0 mm 3 mps 691 mmHg 15%
    20:00 +34°C° 0 mm 2 mps 691 mmHg 16%
    21:00 +32°C° 0 mm 2 mps 691 mmHg 16%
    22:00 +31°C° 0 mm 2 mps 691 mmHg 17%
    23:00 +30°C° 0 mm 2 mps 691 mmHg 18%

    Tomorrow, 26 July, Wednesday

    Time Temperature Precipitation Wind Pressure Humidity
    00:00 +30°C° 0 mm 2 mps 691 mmHg 19%
    01:00 +29°C° 0 mm 2 mps 691 mmHg 20%
    02:00 +29°C° 0 mm 2 mps 691 mmHg 21%
    03:00 +28°C° 0 mm 2 mps 691 mmHg 22%
    04:00 +28°C° 0 mm 2 mps 691 mmHg 23%
    05:00 +30°C° 0 mm 3 mps 692 mmHg 21%
    06:00 +33°C° 0 mm 3 mps 692 mmHg 19%
    07:00 +35°C° 0 mm 4 mps 693 mmHg 17%
    08:00 +36°C° 0 mm 4 mps 693 mmHg 15%
    09:00 +39°C° 0 mm 5 mps 693 mmHg 13%
    10:00 +40°C° 0 mm 6 mps 693 mmHg 12%
    11:00 +41°C° 0 mm 6 mps 693 mmHg 11%
    12:00 +42°C° 0 mm 6 mps 693 mmHg 10%
    13:00 +42°C° 0 mm 6 mps 693 mmHg 10%
    14:00 +42°C° 0 mm 6 mps 692 mmHg 9%
    15:00 +42°C° 0 mm 6 mps 692 mmHg 9%
    16:00 +42°C° 0 mm 6 mps 692 mmHg 9%
    17:00 +40°C° 0 mm 5 mps 692 mmHg 10%
    18:00 +37°C° 0 mm 4 mps 692 mmHg 12%
    19:00 +35°C° 0 mm 4 mps 691 mmHg 13%
    20:00 +34°C° 0 mm 3 mps 692 mmHg 14%
    21:00 +33°C° 0 mm 3 mps 692 mmHg 15%
    22:00 +31°C° 0 mm 3 mps 692 mmHg 16%
    23:00 +32°C° 0 mm 4 mps 692 mmHg 18%

    Day after tomorrow, 27 July, Thursday

    Time Temperature Precipitation Wind Pressure Humidity
    00:00 +32°C° 0 mm 4 mps 692 mmHg 19%
    01:00 +30°C° 0 mm 5 mps 692 mmHg 21%
    02:00 +30°C° 0 mm 4 mps 692 mmHg 22%
    03:00 +29°C° 0 mm 4 mps 692 mmHg 24%
    04:00 +28°C° 0 mm 3 mps 693 mmHg 25%
    05:00 +30°C° 0 mm 4 mps 693 mmHg 24%
    06:00 +32°C° 0 mm 4 mps 694 mmHg 22%
    07:00 +34°C° 0 mm 5 mps 694 mmHg 20%
    08:00 +36°C° 0 mm 5 mps 695 mmHg 18%
    09:00 +38°C° 0 mm 6 mps 695 mmHg 15%
    10:00 +40°C° 0 mm 6 mps 695 mmHg 13%
    11:00 +41°C° 0 mm 7 mps 695 mmHg 13%
    12:00 +43°C° 0 mm 8 mps 695 mmHg 12%
    13:00 +43°C° 0 mm 8 mps 695 mmHg 12%
    14:00 +43°C° 0 mm 8 mps 695 mmHg 12%
    15:00 +43°C° 0 mm 8 mps 694 mmHg 12%
    16:00 +43°C° 0 mm 9 mps 694 mmHg 13%
    17:00 +40°C° 0 mm 8 mps 694 mmHg 14%
    18:00 +38°C° 0 mm 7 mps 694 mmHg 15%
    19:00 +36°C° 0 mm 7 mps 694 mmHg 16%
    20:00 +35°C° 0 mm 7 mps 694 mmHg 18%
    21:00 +34°C° 0 mm 7 mps 695 mmHg 19%
    22:00 +33°C° 0 mm 7 mps 695 mmHg 20%
    23:00 +32°C° 0 mm 6 mps 695 mmHg 21%

    28 July, Friday

    Time Temperature Precipitation Wind Pressure Humidity
    00:00 +32°C° 0 mm 6 mps 695 mmHg 22%
    01:00 +30°C° 0 mm 6 mps 695 mmHg 23%
    02:00 +29°C° 0 mm 6 mps 695 mmHg 24%
    03:00 +29°C° 0 mm 6 mps 695 mmHg 24%
    04:00 +28°C° 0 mm 5 mps 695 mmHg 24%
    05:00 +29°C° 0 mm 6 mps 695 mmHg 23%
    06:00 +32°C° 0 mm 6 mps 696 mmHg 21%
    07:00 +33°C° 0 mm 7 mps 696 mmHg 19%
    08:00 +34°C° 0 mm 7 mps 696 mmHg 18%
    09:00 +36°C° 0 mm 7 mps 696 mmHg 16%
    10:00 +39°C° 0 mm 7 mps 696 mmHg 15%
    11:00 +39°C° 0 mm 7 mps 696 mmHg 14%
    12:00 +40°C° 0 mm 8 mps 696 mmHg 13%
    13:00 +41°C° 0 mm 8 mps 696 mmHg 12%
    14:00 +40°C° 0 mm 8 mps 695 mmHg 12%
    15:00 +40°C° 0 mm 8 mps 695 mmHg 11%
    16:00 +40°C° 0 mm 8 mps 695 mmHg 11%
    17:00 +38°C° 0 mm 7 mps 695 mmHg 12%
    18:00 +36°C° 0 mm 6 mps 695 mmHg 12%
    19:00 +34°C° 0 mm 5 mps 695 mmHg 13%
    20:00 +33°C° 0 mm 5 mps 695 mmHg 14%
    21:00 +32°C° 0 mm 5 mps 695 mmHg 14%
    22:00 +30°C° 0 mm 4 mps 695 mmHg 15%
    23:00 +29°C° 0 mm 4 mps 695 mmHg 16%

    29 July, Saturday

    Time Temperature Precipitation Wind Pressure Humidity
    00:00 +29°C° 0 mm 4 mps 695 mmHg 17%
    01:00 +28°C° 0 mm 4 mps 694 mmHg 18%
    02:00 +27°C° 0 mm 4 mps 694 mmHg 19%
    03:00 +27°C° 0 mm 3 mps 694 mmHg 20%
    04:00 +26°C° 0 mm 3 mps 694 mmHg 21%
    05:00 +28°C° 0 mm 3 mps 694 mmHg 20%
    06:00 +29°C° 0 mm 4 mps 695 mmHg 19%
    07:00 +32°C° 0 mm 4 mps 695 mmHg 18%
    08:00 +34°C° 0 mm 4 mps 696 mmHg 16%
    09:00 +36°C° 0 mm 5 mps 696 mmHg 14%
    10:00 +39°C° 0 mm 5 mps 696 mmHg 13%
    11:00 +39°C° 0 mm 5 mps 696 mmHg 12%
    12:00 +40°C° 0 mm 5 mps 695 mmHg 12%
    13:00 +41°C° 0 mm 5 mps 695 mmHg 11%
    14:00 +41°C° 0 mm 6 mps 695 mmHg 11%
    15:00 +40°C° 0 mm 6 mps 695 mmHg 11%
    16:00 +40°C° 0 mm 6 mps 695 mmHg 11%
    17:00 +37°C° 0 mm 5 mps 695 mmHg 12%
    18:00 +36°C° 0 mm 4 mps 694 mmHg 13%
    19:00 +34°C° 0 mm 4 mps 694 mmHg 14%
    20:00 +33°C° 0 mm 4 mps 694 mmHg 15%
    21:00 +32°C° 0 mm 4 mps 694 mmHg 16%
    22:00 +30°C° 0 mm 4 mps 694 mmHg 16%
    23:00 +29°C° 0 mm 3 mps 694 mmHg 17%

    30 July, Sunday

    Time Temperature Precipitation Wind Pressure Humidity
    00:00 +29°C° 0 mm 3 mps 694 mmHg 18%
    01:00 +28°C° 0 mm 3 mps 694 mmHg 19%
    02:00 +28°C° 0 mm 3 mps 694 mmHg 20%
    03:00 +27°C° 0 mm 3 mps 694 mmHg 21%
    04:00 +27°C° 0 mm 3 mps 694 mmHg 22%
    05:00 +29°C° 0 mm 3 mps 694 mmHg 21%
    06:00 +30°C° 0 mm 4 mps 695 mmHg 20%
    07:00 +33°C° 0 mm 4 mps 695 mmHg 20%
    08:00 +35°C° 0 mm 5 mps 695 mmHg 18%
    09:00 +36°C° 0 mm 5 mps 696 mmHg 16%
    10:00 +39°C° 0 mm 6 mps 696 mmHg 14%
    11:00 +40°C° 0 mm 6 mps 696 mmHg 14%
    12:00 +41°C° 0 mm 6 mps 695 mmHg 13%
    13:00 +41°C° 0 mm 6 mps 695 mmHg 12%
    14:00 +41°C° 0 mm 6 mps 695 mmHg 12%
    15:00 +41°C° 0 mm 6 mps 695 mmHg 12%
    16:00 +41°C° 0 mm 6 mps 694 mmHg 12%
    17:00 +39°C° 0 mm 5 mps 694 mmHg 13%
    18:00 +36°C° 0 mm 4 mps 694 mmHg 15%
    19:00 +34°C° 0 mm 4 mps 694 mmHg 16%
    20:00 +34°C° 0 mm 4 mps 694 mmHg 17%
    21:00 +33°C° 0 mm 4 mps 694 mmHg 18%
    22:00 +32°C° 0 mm 4 mps 694 mmHg 19%
    23:00 +30°C° 0 mm 4 mps 694 mmHg 19%
    Show more